Location: Caltech
(34.1382°N, 118.1253°W)
Time: 16:27:13
(UTC-07:00)

Iridium 49 - Visible Passes

Search period start: 16 September 2014 00:00
Search period end: 26 September 2014 00:00
Orbit: 776 x 779 km, 86.4° (Epoch: 16 September)

Date Brightness Start Highest point End Pass type
(mag) Time Alt. Az. Time Alt. Az. Time Alt. Az.
22 Sep 8.8 22:08:03 11° N 22:08:03 11° N 22:08:12 10° N visible
23 Sep 8.5 21:34:26 12° N 21:34:26 12° N 21:34:44 10° N visible
24 Sep 8.5 21:00:48 10° NNE 21:00:48 10° NNE 21:00:52 10° NNE visible
25 Sep 8.7 22:07:36 12° NNW 22:07:36 12° NNW 22:08:03 10° NNW visible
